This demonstration page uses our WeatherBlox Daily Observations layout. Learn more.

Hourly Observations for May 14, 2016

Temp ( °F °C ) Dew Point ( °F °C ) Humidity (%) Winds ( mph kmh ) Pressure ( in mb ) Visibility ( mi km ) Precip ( " mm )
12:15 am 00:15 Clear 43 6 30 -1 61 61 N 12 19 30.36 1028 10 16.0934 0 0
12:35 am 00:35 Clear 42 5.7 30 -1 62 62 N 10 17 30.36 1028 10 16.0934 0 0
12:55 am 00:55 Clear 42 5.6 30 -1 63 63 N 12 19 30.36 1028 10 16.0934 0 0
1:15 am 01:15 Clear 42 5.5 30 -1.1 63 63 N 9 15 30.42 1030 10 16.0934 0 0
1:35 am 01:35 Clear 41 5.1 29 -1.5 63 63 N 7 11 30.42 1030 10 16.0934 0 0
1:55 am 01:55 Clear 41 4.8 29 -1.5 64 64 N 6 9 30.42 1030 10 16.0934 0 0
2:15 am 02:15 Clear 40 4.5 29 -1.5 65 65 N 6 9 30.42 1030 10 16.0934 0 0
2:35 am 02:35 Clear 40 4.3 29 -1.5 66 66 N 6 9 30.42 1030 10 16.0934 0 0
2:55 am 02:55 Partly Cloudy 40 4.5 30 -1.2 67 67 N 9 15 30.42 1030 10 16.0934 0 0
3:15 am 03:15 Partly Cloudy 40 4.7 29 -1.5 64 64 N 10 17 30.42 1030 10 16.0934 0 0
3:35 am 03:35 Partly Cloudy 40 4.7 28 -2 62 62 N 10 17 30.42 1030 10 16.0934 0 0
3:55 am 03:55 Partly Cloudy 40 4.5 28 -2.5 61 61 NNW 9 15 30.45 1031 10 16.0934 0 0
4:15 am 04:15 Partly Cloudy 40 4.5 27 -2.6 60 60 NNW 8 13 30.45 1031 10 16.0934 0 0
4:35 am 04:35 Partly Cloudy 40 4.5 28 -2.5 61 61 NNW 8 13 30.45 1031 10 16.0934 0 0
4:55 am 04:55 Partly Cloudy 40 4.4 28 -2.2 63 63 NW 8 13 30.45 1031 10 16.0934 0 0
5:15 am 05:15 Mostly Cloudy 40 4.5 28 -2.3 62 62 NW 5 7 30.45 1031 10 16.0934 0 0
5:35 am 05:35 Partly Cloudy 40 4.5 28 -2 63 63 WNW 6 9 30.45 1031 10 16.0934 0 0
5:55 am 05:55 Mostly Cloudy 40 4.5 28 -2.1 63 63 W 6 9 30.45 1031 10 16.0934 0 0
6:15 am 06:15 Partly Cloudy 40 4.2 28 -2 64 64 WNW 6 9 30.45 1031 10 16.0934 0 0
6:35 am 06:35 Sunny 39 4.1 29 -1.8 66 66 WNW 5 7 30.45 1031 10 16.0934 0 0
6:55 am 06:55 Sunny 39 4 29 -1.4 68 68 WNW 7 11 30.45 1031 10 16.0934 0 0
7:15 am 07:15 Sunny 40 4.5 29 -1.5 65 65 NW 7 11 30.45 1031 10 16.0934 0 0
7:35 am 07:35 Sunny 41 5 29 -1.7 62 62 NW 9 15 30.45 1031 10 16.0934 0 0
7:55 am 07:55 Sunny 42 5.3 28 -2 60 60 NW 9 15 30.45 1031 10 16.0934 0 0
8:15 am 08:15 Sunny 43 6 28 -2.2 56 56 NW 12 19 30.45 1031 10 16.0934 0 0
8:35 am 08:35 Sunny 44 6.5 28 -2.4 53 53 NNW 10 17 30.42 1030 10 16.0934 0 0
8:55 am 08:55 Sunny 44 6.8 26 -3.1 50 50 NNW 9 15 30.42 1030 10 16.0934 0 0
9:15 am 09:15 Sunny 46 7.5 27 -2.8 48 48 NNW 9 15 30.42 1030 10 16.0934 0 0
9:35 am 09:35 Sunny 47 8.5 24 -4.7 39 39 N 10 17 30.42 1030 10 16.0934 0 0
9:55 am 09:55 Sunny 47 8.5 22 -5.4 37 37 N 12 19 30.42 1030 10 16.0934 0 0
10:15 am 10:15 Sunny 48 8.9 20 -6.6 33 33 N 13 20 30.39 1029 10 16.0934 0 0
10:35 am 10:35 Sunny 49 9.2 20 -6.4 33 33 N 13 20 30.36 1028 10 16.0934 0 0
10:55 am 10:55 Sunny 49 9.6 23 -5.2 35 35 NNE 14 22 30.36 1028 10 16.0934 0 0
11:15 am 11:15 Sunny 50 9.8 21 -6.2 32 32 N 13 20 30.36 1028 10 16.0934 0 0
11:35 am 11:35 Sunny 50 10.2 22 -5.5 33 33 N 10 17 30.33 1027 10 16.0934 0 0
11:55 am 11:55 Sunny 51 10.4 23 -4.8 34 34 NNE 10 17 30.33 1027 10 16.0934 0 0
12:15 pm 12:15 Sunny 51 10.5 22 -5.3 33 33 NNW 12 19 30.33 1027 10 16.0934 0 0
12:35 pm 12:35 Sunny 51 10.7 25 -4.1 35 35 N 8 13 30.33 1027 10 16.0934 0 0
12:55 pm 12:55 Sunny 52 11 23 -4.8 33 33 NNW 12 19 30.33 1027 10 16.0934 0 0
1:15 pm 13:15 Sunny 53 11.5 24 -4.4 33 33 WNW 6 9 30.33 1027 10 16.0934 0 0
1:35 pm 13:35 Sunny 53 11.6 25 -4.1 33 33 NNW 8 13 30.3 1026 10 16.0934 0 0
1:55 pm 13:55 Sunny 53 11.5 23 -4.9 32 32 N 10 17 30.3 1026 10 16.0934 0 0
2:15 pm 14:15 Sunny 54 12.1 25 -3.9 33 33 NNW 12 19 30.27 1025 10 16.0934 0 0
2:35 pm 14:35 Sunny 54 12.2 25 -4.1 32 32 N 8 13 30.24 1024 10 16.0934 0 0
2:55 pm 14:55 Sunny 54 12.3 26 -3.5 33 33 N 5 7 30.24 1024 10 16.0934 0 0
3:15 pm 15:15 Sunny 55 12.7 26 -3.4 33 33 NNW 5 7 30.24 1024 10 16.0934 0 0
3:35 pm 15:35 Partly Cloudy 54 12.3 24 -4.6 31 31 NNE 8 13 30.24 1024 10 16.0934 0 0
3:55 pm 15:55 Cloudy 55 12.9 25 -4.1 31 31 N 8 13 30.24 1024 10 16.0934 0 0
4:15 pm 16:15 Cloudy 55 12.5 25 -4 32 32 NE 3 6 30.21 1023 10 16.0934 0 0
4:35 pm 16:35 Mostly Cloudy 56 13.1 26 -3.4 32 32 NNW 8 13 30.21 1023 10 16.0934 0 0
4:55 pm 16:55 Partly Cloudy 56 13.4 28 -2.3 34 34 NNE 7 11 30.18 1022 10 16.0934 0 0
5:15 pm 17:15 Sunny 56 13.5 27 -2.7 33 33 NNE 8 13 30.18 1022 10 16.0934 0 0
5:35 pm 17:35 Sunny 57 13.8 29 -1.8 34 34 N 10 17 30.18 1022 10 16.0934 0 0
5:55 pm 17:55 Sunny 56 13.6 26 -3.3 31 31 N 6 9 30.18 1022 10 16.0934 0 0
6:15 pm 18:15 Sunny 57 13.8 27 -3 31 31 N 5 7 30.18 1022 10 16.0934 0 0
6:35 pm 18:35 Partly Cloudy 56 13.2 26 -3.2 32 32 N 10 17 30.18 1022 10 16.0934 0 0
6:55 pm 18:55 Partly Cloudy 56 13.5 26 -3.4 31 31 NNW 7 11 30.18 1022 10 16.0934 0 0
7:15 pm 19:15 Partly Cloudy 55 12.8 26 -3.1 33 33 NNE 7 11 30.18 1022 10 16.0934 0 0
7:35 pm 19:35 Partly Cloudy 55 13 27 -3 33 33 NNE 7 11 30.15 1021 10 16.0934 0 0
7:55 pm 19:55 Partly Cloudy 55 12.7 26 -3.1 33 33 N 7 11 30.15 1021 10 16.0934 0 0
8:15 pm 20:15 Sunny 54 12.2 26 -3.1 35 35 NNE 5 7 30.15 1021 10 16.0934 0 0
8:35 pm 20:35 Sunny 51 10.8 30 -0.9 45 45 NNE 5 7 30.21 1023 10 16.0934 0 0
8:55 pm 20:55 Clear 50 10 31 -0.4 49 49 NE 3 6 30.21 1023 10 16.0934 0 0
9:15 pm 21:15 Clear 50 10 31 -0.6 48 48 NE 5 7 30.21 1023 10 16.0934 0 0
9:35 pm 21:35 Clear 48 8.9 32 -0.2 53 53 ENE 5 7 30.21 1023 10 16.0934 0 0
9:55 pm 21:55 Clear 47 8.2 32 0 57 57 ENE 7 11 30.21 1023 10 16.0934 0 0
10:15 pm 22:15 Clear 46 7.8 32 0 58 58 ENE 7 11 30.27 1025 10 16.0934 0 0
10:35 pm 22:35 Clear 46 7.6 32 -0.1 59 59 E 6 9 30.27 1025 10 16.0934 0 0
10:55 pm 22:55 Clear 45 7.4 32 -0.2 59 59 E 6 9 30.27 1025 10 16.0934 0 0
11:15 pm 23:15 Clear 45 7.1 32 0.2 62 62 ESE 6 9 30.27 1025 10 16.0934 0 0
11:35 pm 23:35 Partly Cloudy 45 7.4 33 0.5 62 62 E 3 6 30.27 1025 10 16.0934 0 0
11:55 pm 23:55 Partly Cloudy 45 7 32 0.2 62 62 E 5 7 30.27 1025 10 16.0934 0 0

Powered by AerisWeather